Satellite: MET-3/5
Catalog number: 21655
Epoch time:      10286.91950311
Element set:    0939
Inclination:      082.5578 deg
RA of node:       224.7362 deg
Eccentricity:    0.0014875
Arg of perigee:   055.4078 deg
Mean anomaly:     304.8396 deg
Mean motion:   13.17025245 rev/day
Decay rate:        5.1e-07 rev/day^2
Epoch rev:           92130
Checksum:              304

Satellite: MET-2/21
Catalog number: 22782
Epoch time:      10287.53650754
Element set:     910
Inclination:      082.5484 deg
RA of node:       157.7727 deg
Eccentricity:    0.0023775
Arg of perigee:   069.1070 deg
Mean anomaly:     291.2633 deg
Mean motion:   13.83649250 rev/day
Decay rate:       -1.0e-07 rev/day^2
Epoch rev:           86458
Checksum:              314

Satellite: OKEAN-4
Catalog number: 23317
Epoch time:      10287.76026685
Element set:     365
Inclination:      082.5398 deg
RA of node:       242.2388 deg
Eccentricity:    0.0021093
Arg of perigee:   204.0155 deg
Mean anomaly:     156.0082 deg
Mean motion:   14.82874225 rev/day
Decay rate:       2.68e-06 rev/day^2
Epoch rev:           86417
Checksum:              305

Satellite: NOAA-14
Catalog number: 23455
Epoch time:      10287.46228338
Element set:     231
Inclination:      098.8715 deg
RA of node:       007.3301 deg
Eccentricity:    0.0008548
Arg of perigee:   257.6094 deg
Mean anomaly:     102.4130 deg
Mean motion:   14.13796988 rev/day
Decay rate:        3.3e-07 rev/day^2
Epoch rev:           81435
Checksum:              299

Satellite: NOAA-15
Catalog number: 25338
Epoch time:      10287.46247027
Element set:     558
Inclination:      098.6322 deg
RA of node:       272.3234 deg
Eccentricity:    0.0011672
Arg of perigee:   087.7071 deg
Mean anomaly:     272.5439 deg
Mean motion:   14.24858825 rev/day
Decay rate:      -1.10e-06 rev/day^2
Epoch rev:           64573
Checksum:              312

Satellite: RESURS
Catalog number: 25394
Epoch time:      10287.71056236
Element set:     626
Inclination:      098.3032 deg
RA of node:       299.2745 deg
Eccentricity:    0.0000593
Arg of perigee:   188.0903 deg
Mean anomaly:     172.0269 deg
Mean motion:   14.24211926 rev/day
Decay rate:        1.0e-08 rev/day^2
Epoch rev:           63736
Checksum:              290

Satellite: FENGYUN1
Catalog number: 25730
Epoch time:      10287.81118491
Element set:     159
Inclination:      098.7961 deg
RA of node:       249.7056 deg
Eccentricity:    0.0021145
Arg of perigee:   290.7455 deg
Mean anomaly:     069.1462 deg
Mean motion:   14.08329243 rev/day
Decay rate:       8.28e-06 rev/day^2
Epoch rev:           58852
Checksum:              321

Satellite: OKEAN-0
Catalog number: 25860
Epoch time:      10286.56150876
Element set:    0124
Inclination:      097.8487 deg
RA of node:       255.3372 deg
Eccentricity:    0.0001941
Arg of perigee:   074.4775 deg
Mean anomaly:     285.6657 deg
Mean motion:   14.73669969 rev/day
Decay rate:        8.1e-07 rev/day^2
Epoch rev:           60433
Checksum:              337

Satellite: NOAA-16
Catalog number: 26536
Epoch time:      10287.43649241
Element set:      34
Inclination:      099.1660 deg
RA of node:       307.6938 deg
Eccentricity:    0.0010569
Arg of perigee:   007.4723 deg
Mean anomaly:     352.6593 deg
Mean motion:   14.12579250 rev/day
Decay rate:      -2.01e-06 rev/day^2
Epoch rev:           51866
Checksum:              307

Satellite: NOAA-17
Catalog number: 27453
Epoch time:      10287.50132799
Element set:      24
Inclination:      098.4164 deg
RA of node:       333.0568 deg
Eccentricity:    0.0012279
Arg of perigee:   144.7096 deg
Mean anomaly:     215.4899 deg
Mean motion:   14.24199446 rev/day
Decay rate:       2.08e-06 rev/day^2
Epoch rev:           43168
Checksum:              325

Satellite: NOAA-18
Catalog number: 28654
Epoch time:      10287.54059422
Element set:     514
Inclination:      098.9634 deg
RA of node:       233.5252 deg
Eccentricity:    0.0015194
Arg of perigee:   077.4451 deg
Mean anomaly:     282.8398 deg
Mean motion:   14.11399099 rev/day
Decay rate:       3.64e-06 rev/day^2
Epoch rev:           27827
Checksum:              337

Satellite: NOAA-19
Catalog number: 33591
Epoch time:      10287.48370890
Element set:     710
Inclination:      098.7994 deg
RA of node:       227.1187 deg
Eccentricity:    0.0013598
Arg of perigee:   315.0690 deg
Mean anomaly:     044.9380 deg
Mean motion:   14.11091057 rev/day
Decay rate:       -1.0e-07 rev/day^2
Epoch rev:            8673
Checksum:              314

/EX
SB KEPS @ AMSAT  $ORB10287.M
Orbital Elements  10287.MISC

HR AMSAT ORBITAL ELEMENTS FOR MANNED AND MISCELLANEOUS SATELLITES
FROM WA5QGD FORT WORTH,TX October 14, 2010
BID: ORB10287.M
TO ALL RADIO AMATEURS BT

Satellite: HUBBLE
Catalog number: 20580
Epoch time:      10286.13501496
Element set:     659
Inclination:      028.4688 deg
RA of node:       189.8229 deg
Eccentricity:    0.0003208
Arg of perigee:   020.5896 deg
Mean anomaly:     339.4857 deg
Mean motion:   15.01059772 rev/day
Decay rate:       6.38e-06 rev/day^2
Epoch rev:           92249
Checksum:              327

Satellite: ISS
Catalog number: 25544
Epoch time:      10287.98463575
Element set:      71
Inclination:      051.6475 deg
RA of node:       337.6888 deg
Eccentricity:    0.0007989
Arg of perigee:   094.5997 deg
Mean anomaly:     328.8197 deg
Mean motion:   15.71998344 rev/day
Decay rate:     1.1801e-04 rev/day^2
Epoch rev:           68231
Checksum:              367

